CW2931 Weather Reports


Display with metric or nautical units.
time (UTC)temp
F
wind
direction
speed
MPH
gust
MPH
rain 1hr
in
rain 24hr
in
rain mn
in
humidity
%
barometer
mb
20260901015605 73 197 0.0 2.0 0.00 0.06 0.06 87 1013.1
20260901015104 73 195 0.0 1.0 0.00 0.06 0.06 87 1013.1
20260901014104 73 196 0.0 0.0 0.00 0.06 0.06 87 1013.1
20260901013604 73 196 0.0 0.0 0.00 0.06 0.06 87 1013.1
20260901013105 73 196 0.0 0.0 0.00 0.06 0.06 87 1013.0
20260901012604 73 196 0.0 0.0 0.00 0.06 0.06 87 1013.1
20260901012104 73 196 0.0 0.0 0.00 0.06 0.06 87 1013.1
20260901011604 73 197 0.0 0.0 0.00 0.06 0.06 87 1013.1
20260901011104 73 197 0.0 1.0 0.00 0.06 0.06 87 1013.1
20260901010604 73 197 0.0 1.0 0.00 0.06 0.06 87 1013.1
20260901010104 73 197 0.0 1.0 0.00 0.06 0.06 87 1012.9
20260901005104 74 197 0.0 2.0 0.00 0.06 0.06 87 1012.6
20260901004104 74 194 0.0 1.0 0.00 0.06 0.06 87 1012.5
20260901003105 74 194 0.0 2.0 0.01 0.06 0.06 87 1012.3
20260901002605 74 194 1.0 2.0 0.01 0.06 0.06 87 1012.2
20260901002105 74 194 1.0 2.0 0.01 0.06 0.06 86 1012.3
20260901001604 74 194 1.0 2.0 0.01 0.06 0.06 86 1012.4
20260901001104 74 195 1.0 2.0 0.01 0.06 0.06 86 1012.6
20260901000105 74 194 1.0 2.0 0.01 0.06 0.06 86 1012.6
20260831235605 74 192 1.0 2.0 0.01 0.06 0.06 86 1012.6
20260831234104 74 186 1.0 2.0 0.02 0.06 0.06 86 1012.6
20260831233604 75 185 1.0 2.0 0.02 0.06 0.06 86 1012.6
20260831233104 75 184 1.0 3.0 0.01 0.05 0.05 86 1012.5
20260831232604 75 186 1.0 3.0 0.01 0.05 0.05 87 1012.6
20260831232104 75 248 1.0 3.0 0.01 0.05 0.05 87 1012.7
20260831231104 75 154 3.0 5.0 0.02 0.05 0.05 86 1012.7
20260831230604 75 158 1.0 3.0 0.02 0.05 0.05 86 1012.6
20260831230104 75 172 2.0 5.0 0.03 0.05 0.05 86 1012.7
20260831225604 76 239 3.0 6.0 0.03 0.05 0.05 86 1012.9
20260831225104 76 242 2.0 7.0 0.02 0.04 0.04 86 1012.8
20260831224604 76 181 3.0 7.0 0.03 0.05 0.04 85 1012.9
20260831224104 76 221 2.0 6.0 0.03 0.05 0.04 85 1013.0
20260831223604 77 211 3.0 9.0 0.04 0.05 0.04 85 1013.2
20260831223104 77 223 3.0 7.0 0.04 0.05 0.04 83 1013.2
20260831222604 77 170 4.0 9.0 0.04 0.06 0.04 83 1013.4
20260831220605 80 206 2.0 5.0 0.03 0.05 0.03 80 1014.1
20260831220104 80 209 2.0 5.0 0.02 0.04 0.02 79 1014.2
20260831215604 81 225 3.0 7.0 0.02 0.04 0.02 78 1014.3
20260831215105 81 226 1.0 3.0 0.02 0.04 0.02 76 1014.4
20260831214604 82 203 1.0 3.0 0.01 0.03 0.01 75 1014.7
20260831214105 82 204 1.0 3.0 0.01 0.03 0.01 75 1014.6
20260831213604 82 211 1.0 3.0 0.00 0.02 0.00 73 1014.3
20260831213105 83 203 1.0 3.0 0.00 0.02 0.00 72 1014.6
20260831212604 83 226 3.0 5.0 0.00 0.02 0.00 70 1014.6
20260831212105 84 226 3.0 7.0 0.00 0.02 0.00 69 1014.6
20260831211104 84 242 2.0 7.0 0.00 0.02 0.00 66 1014.8
20260831210604 85 225 2.0 7.0 0.00 0.02 0.00 65 1014.7
20260831210104 85 207 3.0 6.0 0.00 0.02 0.00 64 1014.8
20260831205605 85 230 3.0 3.0 0.00 0.02 0.00 63 1014.9
20260831205104 86 217 2.0 5.0 0.00 0.02 0.00 63 1014.9
20260831204605 86 194 1.0 3.0 0.00 0.02 0.00 63 1014.8
20260831204104 86 207 1.0 3.0 0.00 0.02 0.00 62 1014.6
20260831203604 86 195 1.0 3.0 0.00 0.02 0.00 61 1014.3
20260831203105 87 195 2.0 3.0 0.00 0.02 0.00 61 1014.3
20260831202104 87 220 2.0 3.0 0.00 0.02 0.00 60 1014.3
20260831201604 87 226 3.0 7.0 0.00 0.02 0.00 59 1014.2
20260831201104 88 207 4.0 7.0 0.00 0.02 0.00 59 1014.3
20260831200604 88 170 2.0 5.0 0.00 0.02 0.00 59 1014.4
20260831200104 88 177 2.0 3.0 0.00 0.02 0.00 58 1014.5
20260831195604 88 195 2.0 5.0 0.00 0.02 0.00 58 1014.7
20260831195104 88 195 2.0 5.0 0.00 0.02 0.00 60 1014.7
20260831194605 88 223 1.0 3.0 0.00 0.02 0.00 61 1014.8
20260831194104 87 235 2.0 3.0 0.00 0.02 0.00 61 1014.7
20260831193604 87 179 2.0 5.0 0.00 0.02 0.00 61 1014.7
20260831193104 87 147 1.0 2.0 0.00 0.02 0.00 61 1014.7
20260831192604 87 144 1.0 3.0 0.00 0.02 0.00 61 1014.7
20260831191604 87 227 2.0 5.0 0.00 0.02 0.00 61 1014.6
20260831191104 87 215 2.0 5.0 0.00 0.02 0.00 63 1014.6
20260831190604 87 248 1.0 5.0 0.00 0.02 0.00 63 1014.7
20260831190105 86 183 2.0 5.0 0.00 0.02 0.00 62 1014.8
20260831185604 86 175 2.0 3.0 0.00 0.02 0.00 63 1014.8
20260831185104 86 226 3.0 6.0 0.00 0.02 0.00 63 1014.8
20260831184604 85 188 4.0 6.0 0.00 0.02 0.00 65 1014.8
20260831184104 85 268 1.0 3.0 0.00 0.02 0.00 66 1014.8
20260831183604 84 253 0.0 0.0 0.00 0.02 0.00 67 1014.9
20260831183104 84 246 0.0 0.0 0.00 0.02 0.00 66 1014.9
20260831182604 84 193 0.0 0.0 0.00 0.02 0.00 69 1014.9
20260831182104 83 243 0.0 0.0 0.00 0.02 0.00 69 1014.8
20260831181604 83 243 0.0 0.0 0.00 0.02 0.00 70 1014.9
20260831181104 83 273 0.0 0.0 0.00 0.02 0.00 71 1015.0
20260831180605 82 229 0.0 0.0 0.00 0.02 0.00 73 1014.9
20260831180105 82 189 0.0 0.0 0.00 0.02 0.00 74 1015.1
20260831175603 81 242 0.0 0.0 0.00 0.02 0.00 73 1015.1
20260831175104 81 239 0.0 0.0 0.00 0.02 0.00 73 1015.2
20260831174604 81 240 0.0 0.0 0.00 0.02 0.00 74 1015.4
20260831174104 81 209 0.0 0.0 0.00 0.02 0.00 74 1015.3
20260831173605 80 209 0.0 0.0 0.00 0.02 0.00 74 1015.2
20260831173104 80 178 0.0 0.0 0.00 0.02 0.00 75 1014.9
20260831172605 80 173 0.0 0.0 0.00 0.02 0.00 75 1014.9
20260831172104 80 174 0.0 0.0 0.00 0.02 0.00 75 1014.8
20260831171104 80 249 0.0 0.0 0.00 0.02 0.00 75 1015.4
20260831170604 80 249 0.0 0.0 0.00 0.02 0.00 75 1015.8
20260831170106 80 249 0.0 0.0 0.00 0.02 0.00 74 1015.9
20260831165604 80 249 0.0 0.0 0.00 0.02 0.00 73 1016.0
20260831165104 80 250 0.0 0.0 0.00 0.02 0.00 73 1016.2
20260831164604 80 250 0.0 0.0 0.00 0.02 0.00 73 1016.4
20260831164104 80 247 0.0 0.0 0.00 0.02 0.00 74 1016.4
20260831163604 81 265 0.0 0.0 0.00 0.02 0.00 74 1016.4
20260831162604 81 259 0.0 0.0 0.00 0.02 0.00 74 1016.5
20260831161604 81 259 0.0 0.0 0.00 0.02 0.00 74 1016.5
20260831161104 81 261 0.0 0.0 0.00 0.03 0.00 73 1016.5
20260831160604 80 253 0.0 0.0 0.00 0.03 0.00 73 1016.5
20260831160104 80 276 0.0 0.0 0.00 0.03 0.00 74 1016.5
20260831155604 80 275 0.0 0.0 0.00 0.03 0.00 74 1016.5
20260831155104 80 278 0.0 0.0 0.00 0.03 0.00 74 1016.4
20260831154104 80 248 0.0 0.0 0.00 0.03 0.00 76 1016.2
20260831153604 79 254 0.0 0.0 0.00 0.03 0.00 76 1016.1
20260831153104 79 235 0.0 0.0 0.00 0.03 0.00 77 1016.1
20260831152605 79 259 0.0 0.0 0.00 0.04 0.00 78 1016.1
20260831152106 78 234 0.0 0.0 0.00 0.04 0.00 78 1016.1
20260831151603 78 264 0.0 0.0 0.00 0.04 0.00 79 1016.0
20260831151104 78 240 0.0 0.0 0.00 0.04 0.00 80 1015.8
20260831150605 78 251 0.0 0.0 0.00 0.05 0.00 81 1015.8
20260831150104 78 213 0.0 0.0 0.00 0.05 0.00 82 1015.9
20260831145104 77 244 0.0 0.0 0.00 0.05 0.00 82 1015.9
20260831144103 77 149 0.0 0.0 0.00 0.06 0.00 83 1016.0
20260831143603 76 251 0.0 0.0 0.00 0.07 0.00 83 1015.9
20260831143104 76 251 0.0 0.0 0.00 0.07 0.00 84 1015.9
20260831142604 76 221 0.0 0.0 0.00 0.08 0.00 84 1015.9
20260831141604 76 247 0.0 0.0 0.00 0.10 0.00 85 1015.8
20260831141104 76 259 0.0 0.0 0.00 0.10 0.00 85 1015.6
20260831140604 75 236 0.0 0.0 0.00 0.11 0.00 86 1015.6
20260831140105 75 187 0.0 0.0 0.00 0.12 0.00 87 1015.6
20260831135604 75 221 0.0 0.0 0.00 0.13 0.00 87 1015.6
20260831135104 75 211 0.0 0.0 0.00 0.14 0.00 87 1015.5
20260831134604 74 235 0.0 0.0 0.00 0.14 0.00 88 1015.5
20260831134104 74 248 0.0 0.0 0.00 0.15 0.00 88 1015.6
20260831133606 74 228 0.0 0.0 0.00 0.16 0.00 88 1015.6
20260831133104 74 233 0.0 0.0 0.00 0.16 0.00 89 1015.7
20260831132604 74 228 0.0 0.0 0.00 0.17 0.00 89 1015.8
20260831132103 73 211 0.0 0.0 0.00 0.17 0.00 89 1015.7
20260831131604 73 228 0.0 0.0 0.00 0.18 0.00 89 1015.6
20260831131104 73 184 0.0 0.0 0.00 0.18 0.00 89 1015.5
20260831130604 73 241 0.0 0.0 0.00 0.19 0.00 89 1015.5
20260831130104 73 260 0.0 0.0 0.00 0.19 0.00 90 1015.5
20260831125104 73 260 0.0 0.0 0.00 0.20 0.00 90 1015.4
20260831124604 73 260 0.0 0.0 0.00 0.20 0.00 90 1015.4
20260831124104 73 260 0.0 0.0 0.00 0.20 0.00 90 1015.4
20260831123604 73 260 0.0 0.0 0.00 0.20 0.00 90 1015.3
20260831123103 72 260 0.0 0.0 0.00 0.20 0.00 90 1015.3
20260831122104 72 260 0.0 0.0 0.00 0.20 0.00 90 1015.3
20260831121604 72 261 0.0 0.0 0.00 0.20 0.00 90 1015.4
20260831121104 72 261 0.0 0.0 0.00 0.20 0.00 90 1015.4
20260831120605 72 261 0.0 0.0 0.00 0.20 0.00 90 1015.4
20260831120103 72 261 0.0 0.0 0.00 0.20 0.00 90 1015.4
20260831115604 72 261 0.0 0.0 0.00 0.20 0.00 90 1015.4
20260831115104 72 261 0.0 0.0 0.00 0.20 0.00 90 1015.4
20260831114604 72 261 0.0 0.0 0.00 0.20 0.00 90 1015.4
20260831114103 72 261 0.0 0.0 0.00 0.20 0.00 90 1015.4
20260831113604 72 261 0.0 0.0 0.00 0.20 0.00 90 1015.4
20260831113104 72 261 0.0 0.0 0.00 0.20 0.00 90 1015.4
20260831112604 72 261 0.0 0.0 0.00 0.20 0.00 90 1015.3
20260831112104 72 262 0.0 0.0 0.00 0.20 0.00 90 1015.4
20260831111104 72 238 0.0 0.0 0.00 0.20 0.00 90 1015.3
20260831110103 72 238 0.0 0.0 0.00 0.20 0.00 91 1015.3
20260831105104 72 238 0.0 0.0 0.00 0.20 0.00 91 1015.3
20260831104603 72 238 0.0 0.0 0.00 0.20 0.00 91 1015.4
20260831103604 72 240 0.0 0.0 0.00 0.20 0.00 91 1015.2
20260831103104 72 242 0.0 0.0 0.00 0.20 0.00 91 1015.3
20260831102604 72 240 0.0 0.0 0.00 0.20 0.00 91 1015.3
20260831102104 72 238 0.0 0.0 0.00 0.20 0.00 91 1015.0
20260831101604 72 229 0.0 0.0 0.00 0.20 0.00 91 1015.0
20260831101104 71 210 0.0 0.0 0.00 0.20 0.00 91 1015.2
20260831100104 71 254 0.0 0.0 0.00 0.20 0.00 91 1015.1
20260831095603 71 258 0.0 0.0 0.00 0.20 0.00 91 1015.1
20260831094604 71 251 0.0 0.0 0.00 0.20 0.00 91 1015.1
20260831094104 71 251 0.0 0.0 0.00 0.20 0.00 91 1015.1
20260831093604 71 261 0.0 0.0 0.00 0.20 0.00 91 1015.1
20260831092604 71 235 0.0 0.0 0.00 0.21 0.00 91 1015.2
20260831092103 71 255 0.0 0.0 0.00 0.21 0.00 91 1015.1
20260831091603 71 256 0.0 0.0 0.00 0.21 0.00 91 1015.2
20260831091104 71 256 0.0 0.0 0.00 0.21 0.00 91 1015.2
20260831090603 71 255 0.0 0.0 0.00 0.21 0.00 91 1015.0
20260831090104 70 256 0.0 0.0 0.00 0.21 0.00 90 1015.0
20260831085604 70 256 0.0 0.0 0.00 0.21 0.00 90 1015.1
20260831085104 70 256 0.0 0.0 0.00 0.21 0.00 90 1015.2
20260831084604 70 256 0.0 0.0 0.00 0.21 0.00 90 1015.0
20260831084104 70 256 0.0 0.0 0.00 0.21 0.00 90 1014.8
20260831083603 70 256 0.0 0.0 0.00 0.21 0.00 90 1014.6
20260831083104 70 256 0.0 0.0 0.00 0.21 0.00 90 1014.7
20260831082604 70 256 0.0 0.0 0.00 0.21 0.00 90 1014.8
20260831082103 70 256 0.0 0.0 0.00 0.21 0.00 90 1014.9
20260831081604 70 256 0.0 0.0 0.00 0.21 0.00 90 1014.9
20260831080603 70 256 0.0 0.0 0.00 0.21 0.00 89 1014.9
20260831080104 71 256 0.0 0.0 0.00 0.21 0.00 89 1015.0
20260831075603 71 256 0.0 0.0 0.00 0.22 0.00 89 1015.0
20260831075103 71 256 0.0 0.0 0.00 0.22 0.00 89 1015.2
20260831074104 71 256 0.0 0.0 0.00 0.22 0.00 89 1015.3
20260831073606 71 256 0.0 0.0 0.00 0.22 0.00 89 1015.3
20260831073105 71 256 0.0 0.0 0.00 0.23 0.00 89 1015.4
20260831072604 71 256 0.0 0.0 0.00 0.23 0.00 88 1015.5
20260831072104 71 256 0.0 0.0 0.00 0.23 0.00 88 1015.5
20260831071603 71 256 0.0 0.0 0.00 0.23 0.00 88 1015.5
20260831071103 71 256 0.0 0.0 0.00 0.23 0.00 88 1015.5
20260831070604 71 256 0.0 0.0 0.00 0.23 0.00 89 1015.6
20260831070104 71 255 0.0 0.0 0.00 0.23 0.00 88 1015.5
20260831065603 71 255 0.0 0.0 0.00 0.23 0.00 88 1015.5
20260831065103 71 255 0.0 0.0 0.00 0.23 0.00 88 1015.5
20260831064604 71 255 0.0 0.0 0.00 0.23 0.00 88 1015.5
20260831063605 71 255 0.0 0.0 0.00 0.23 0.00 88 1015.5
20260831063104 72 255 0.0 0.0 0.00 0.23 0.00 88 1015.5
20260831062604 72 255 0.0 0.0 0.00 0.23 0.00 88 1015.5
20260831062105 72 256 0.0 0.0 0.00 0.23 0.00 88 1015.5
20260831061605 72 255 0.0 0.0 0.00 0.23 0.00 88 1015.5
20260831061105 72 255 0.0 0.0 0.00 0.23 0.00 88 1015.5
20260831060604 72 256 0.0 0.0 0.00 0.23 0.00 88 1015.6
20260831055604 72 255 0.0 0.0 0.00 0.23 0.00 88 1015.8
20260831055104 72 256 0.0 0.0 0.00 0.23 0.00 88 1015.9
20260831054605 72 255 0.0 0.0 0.00 0.23 0.00 88 1015.9
20260831054105 72 256 0.0 0.0 0.00 0.23 0.00 88 1015.9
20260831053605 72 256 0.0 0.0 0.00 0.23 0.00 88 1016.0
20260831053104 72 256 0.0 0.0 0.00 0.24 0.00 88 1016.0
20260831051605 72 256 0.0 0.0 0.00 0.24 0.00 87 1016.0
20260831051105 72 256 0.0 0.0 0.00 0.24 0.00 87 1016.0
20260831050605 72 255 0.0 0.0 0.00 0.24 0.00 87 1016.0
20260831045605 72 239 0.0 0.0 0.00 0.24 0.00 87 1016.0
20260831045105 72 239 0.0 0.0 0.00 0.24 0.00 87 1015.9
20260831044605 72 240 0.0 0.0 0.00 0.24 0.00 87 1016.0
20260831044105 73 245 0.0 0.0 0.00 0.24 0.00 87 1016.0
20260831043605 73 248 0.0 0.0 0.00 0.24 0.00 87 1016.0
20260831043104 73 243 0.0 0.0 0.00 0.24 0.00 87 1016.1
20260831042104 73 249 0.0 0.0 0.00 0.24 0.00 87 1016.2
20260831041604 73 250 0.0 0.0 0.00 0.24 0.00 87 1016.1
20260831041105 73 231 0.0 0.0 0.00 0.24 0.00 87 1016.0
20260831040604 73 249 0.0 0.0 0.00 0.24 0.00 87 1016.0
20260831040105 73 248 0.0 0.0 0.00 0.24 0.00 87 1016.1
20260831035604 73 250 0.0 0.0 0.00 0.24 0.24 87 1016.0
20260831035104 73 236 0.0 0.0 0.00 0.24 0.24 87 1016.1
20260831034604 73 203 0.0 0.0 0.00 0.24 0.24 87 1016.1
20260831034104 73 248 0.0 0.0 0.00 0.24 0.24 87 1016.0
20260831033605 73 247 0.0 0.0 0.00 0.24 0.24 87 1016.0
20260831033105 73 247 0.0 0.0 0.00 0.24 0.24 86 1016.0
20260831032605 73 253 0.0 0.0 0.00 0.24 0.24 86 1016.0
20260831032104 73 197 0.0 0.0 0.00 0.24 0.24 86 1016.0
20260831031604 73 250 0.0 0.0 0.00 0.24 0.24 86 1016.0
20260831031105 73 240 0.0 0.0 0.00 0.24 0.24 86 1015.9
20260831030604 73 216 0.0 0.0 0.00 0.24 0.24 86 1016.0
20260831030105 73 241 0.0 0.0 0.00 0.24 0.24 86 1016.0
20260831025604 72 201 0.0 0.0 0.00 0.24 0.24 86 1016.0
20260831024604 72 227 0.0 0.0 0.00 0.24 0.24 85 1015.9
20260831024104 72 197 0.0 0.0 0.00 0.24 0.24 85 1015.8
20260831023604 72 179 0.0 0.0 0.00 0.24 0.24 85 1015.7
20260831023104 72 186 0.0 0.0 0.00 0.24 0.24 85 1015.8
20260831022604 72 183 0.0 0.0 0.00 0.24 0.24 85 1015.8
20260831022105 72 182 0.0 0.0 0.00 0.24 0.24 84 1015.8
20260831021604 72 180 0.0 0.0 0.00 0.24 0.24 84 1015.8
20260831021105 72 180 0.0 0.0 0.00 0.24 0.24 84 1015.9
20260831020605 72 198 0.0 0.0 0.00 0.24 0.24 84 1015.9